Location: South Tamworth Observatory
(43.8246°N, 71.3026°W)
Time: 06:51:04
(UTC-04:00)

Amateur Radio Satellites - All Passes

Search period start: 24 July 2017 06:21
Search period end: 25 July 2017 06:21
Location: South Tamworth Observatory, 43.8246°N, 71.3026°W

Satellite Date Start Highest point End Downlink Frequencies (MHz)
Time Altitude Azimuth
AO-7 24 Jul 06:26:24 06:33:07 28° 307° (NW) 06:39:49 .
DOVE 4 24 Jul 06:29:23 06:34:43 86° 284° (WNW) 06:39:51 437.250
XW-2D 24 Jul 06:34:13 06:37:49 41° 99° (E) 06:41:23 145.860 - 145.880
XW-2B 24 Jul 06:44:10 06:47:52 53° 100° (E) 06:51:33 145.730 - 145.750
PCSat 24 Jul 06:49:59 06:54:50 32° 312° (NW) 06:59:43 145.827
HO-68 24 Jul 06:56:42 07:02:01 22° 91° (E) 07:07:18 435.675
CUTE 1.7 + AOD 2 24 Jul 06:57:07 06:59:14 13° 90° (E) 07:01:20 437.475
XW-2C 24 Jul 07:01:25 07:05:11 90° 84° (E) 07:08:57 145.795 - 145.815
CUTE-I 24 Jul 07:02:08 07:07:29 64° 102° (ESE) 07:12:47 437.470
SEEDS 24 Jul 07:11:58 07:13:41 12° 89° (E) 07:15:24 437.485
NUDT-PHONESAT 24 Jul 07:13:58 07:17:40 86° 280° (W) 07:21:20 437.300
STRAND 1 24 Jul 07:18:09 07:23:19 87° 76° (ENE) 07:28:31 437.568
XW-2A 24 Jul 07:19:10 07:19:46 10° 90° (E) 07:20:22 145.665 - 145.685
LilacSat-2 24 Jul 07:23:33 07:27:11 45° 287° (WNW) 07:30:48 437.200
KAITUO 1B 24 Jul 07:26:40 07:30:19 57° 286° (WNW) 07:33:58 145.475/437.950
XW-2F 24 Jul 07:40:35 07:43:57 32° 289° (WNW) 07:47:18 145.980 - 146.000
YUBILEINY 24 Jul 07:49:17 07:56:34 31° 278° (W) 08:03:48 435.215
SO-50 24 Jul 07:53:33 07:57:44 36° 313° (NW) 08:01:56 436.795
AAUSAT CUBESAT 2 24 Jul 07:58:01 08:00:55 18° 92° (E) 08:03:49 437.432
CUBEBUG 2 24 Jul 07:59:22 08:03:13 32° 96° (E) 08:06:58 437.445
DOVE 4 24 Jul 08:09:07 08:11:31 13° 302° (WNW) 08:13:54 437.250
XW-2D 24 Jul 08:09:27 08:11:39 15° 295° (WNW) 08:13:53 145.860 - 145.880
FO-29 24 Jul 08:16:45 08:23:25 34° 61° (ENE) 08:30:14 435.910
XW-2B 24 Jul 08:20:00 08:21:37 12° 297° (WNW) 08:23:13 145.730 - 145.750
AO-73 24 Jul 08:21:38 08:24:13 16° 91° (E) 08:26:47 145.935
TIGRISAT 24 Jul 08:29:05 08:31:10 13° 61° (ENE) 08:33:13 435.000
CUTE 1.7 + AOD 2 24 Jul 08:31:14 08:35:24 56° 286° (WNW) 08:39:34 437.475
HO-68 24 Jul 08:43:15 08:50:24 74° 290° (WNW) 08:57:30 435.675
CUTE-I 24 Jul 08:43:18 08:47:01 20° 300° (WNW) 08:50:44 437.470
SEEDS 24 Jul 08:45:35 08:49:45 62° 286° (WNW) 08:53:55 437.485
XW-2A 24 Jul 08:49:34 08:52:46 43° 287° (WNW) 08:55:55 145.665 - 145.685
UWE-3 24 Jul 08:59:30 09:03:44 87° 104° (ESE) 09:07:53 435.000/436.395/437.385
STRAND 1 24 Jul 09:01:23 09:03:10 12° 272° (W) 09:04:58 437.568
M-CUBED/EXP-1 PRIME 24 Jul 09:05:26 09:07:56 17° 57° (ENE) 09:10:34 437.505
DELFI C3 24 Jul 09:12:16 09:12:56 10° 89° (E) 09:13:36 145.870
ZACube-1 24 Jul 09:15:41 09:19:52 72° 102° (ESE) 09:23:59 437.345
UNISAT 6 24 Jul 09:18:22 09:22:42 40° 71° (ENE) 09:27:00 437.425
AAUSAT CUBESAT 2 24 Jul 09:32:37 09:36:32 40° 289° (WNW) 09:40:27 437.432
PRISM 24 Jul 09:35:10 09:39:07 49° 72° (ENE) 09:43:07 437.425
CUBEBUG 2 24 Jul 09:36:16 09:39:41 24° 294° (WNW) 09:43:02 437.445
Oscar 11 24 Jul 09:43:42 09:48:02 83° 283° (WNW) 09:52:21 .
EO-88 24 Jul 09:53:10 09:55:44 18° 93° (E) 09:58:17 145.990 - 145.960
AO-73 24 Jul 09:56:45 10:00:42 44° 288° (WNW) 10:04:37 145.935
FO-29 24 Jul 10:00:28 10:07:57 60° 261° (W) 10:15:46 435.910
TIGRISAT 24 Jul 10:02:35 10:07:14 79° 256° (WSW) 10:11:50 435.000
EO-79 24 Jul 10:22:28 10:24:06 12° 61° (ENE) 10:25:45 145.935-145.965
NANOSAT C BR1 24 Jul 10:23:39 10:24:50 11° 60° (ENE) 10:26:01 145.865
HO-68 24 Jul 10:32:51 10:36:57 16° 310° (NW) 10:41:03 435.675
M-CUBED/EXP-1 PRIME 24 Jul 10:38:36 10:42:01 40° 257° (WSW) 10:45:44 437.505
DELFI C3 24 Jul 10:44:08 10:48:08 66° 285° (WNW) 10:52:06 145.870
ZACube-1 24 Jul 10:54:11 10:55:33 11° 299° (WNW) 10:56:55 437.345
UNISAT 6 24 Jul 10:55:57 10:59:32 22° 267° (W) 11:03:07 437.425
PRISM 24 Jul 11:12:24 11:14:40 14° 269° (W) 11:16:58 437.425
AIST 2D 24 Jul 11:22:49 11:26:17 70° 259° (W) 11:29:46 435.315
EO-88 24 Jul 11:26:14 11:29:28 30° 290° (WNW) 11:32:40 145.990 - 145.960
DUCHIFAT 1 24 Jul 11:28:48 11:32:51 45° 72° (ENE) 11:36:54 145.980
POLYITAN 1 24 Jul 11:29:42 11:33:54 58° 73° (ENE) 11:38:06 437.675
LO-87 24 Jul 11:33:23 11:36:48 38° 98° (E) 11:40:09 145.935 - 145.965
Oscar 19 24 Jul 11:39:16 11:40:30 11° 55° (NE) 11:41:44 437.125/150
QB50P2 24 Jul 11:42:36 11:46:52 89° 76° (ENE) 11:51:10 145.880/145.840
AO-85 24 Jul 11:49:54 11:50:04 10° 109° (ESE) 11:50:15 145.980
NO-84 24 Jul 11:51:46 11:54:50 82° 140° (SE) 11:58:10 435.350 FM
FO-29 24 Jul 11:52:33 11:54:30 11° 280° (W) 11:56:27 435.910
EO-79 24 Jul 11:55:00 11:59:16 74° 258° (WSW) 12:03:33 145.935-145.965
NANOSAT C BR1 24 Jul 11:55:38 11:59:54 81° 258° (WSW) 12:04:11 145.865
Gurwin Techsat 1B 24 Jul 11:57:43 11:59:08 11° 55° (NE) 12:00:33 435.225
BUGSAT 1 24 Jul 12:01:38 12:05:22 31° 69° (ENE) 12:09:07 437.445
PCSat 24 Jul 12:11:00 12:12:56 12° 30° (NNE) 12:14:52 145.827
ESTCUBE 1 24 Jul 12:16:49 12:21:21 73° 102° (ESE) 12:25:52 437.505/2401.250
SPROUT 24 Jul 12:28:40 12:32:13 25° 95° (E) 12:35:43 437.525
50 SAT 24 Jul 12:46:25 12:47:25 11° 91° (E) 12:48:24 437.505
DUCHIFAT 1 24 Jul 13:05:59 13:08:44 17° 268° (W) 13:11:29 145.980
VELOX 1 24 Jul 13:06:27 13:10:50 54° 100° (E) 13:15:12 145.980
BEESAT 3 24 Jul 13:06:59 13:10:57 69° 121° (ESE) 13:14:59 437.485
LO-87 24 Jul 13:07:49 13:09:54 15° 295° (WNW) 13:11:59 145.935 - 145.965
POLYITAN 1 24 Jul 13:07:58 13:10:01 13° 270° (W) 13:12:06 437.675
Oscar 19 24 Jul 13:13:49 13:18:54 74° 74° (ENE) 13:24:02 437.125/150
DX 1 24 Jul 13:15:27 13:18:47 21° 94° (E) 13:22:06 434.975-435.025
AO-85 24 Jul 13:25:53 13:29:52 75° 305° (NW) 13:33:48 145.980
NO-84 24 Jul 13:30:11 13:32:42 20° 341° (NNW) 13:35:24 435.350 FM
Gurwin Techsat 1B 24 Jul 13:32:50 13:38:07 71° 73° (ENE) 13:43:27 435.225
BUGSAT 1 24 Jul 13:37:15 13:40:43 24° 265° (W) 13:44:12 437.445
AO-7 24 Jul 13:42:21 13:49:11 29° 53° (NE) 13:56:01 .
BEESAT 2 24 Jul 13:44:51 13:48:46 59° 121° (ESE) 13:52:46 435.950
PCSat 24 Jul 13:52:28 13:57:44 47° 53° (NE) 14:02:57 145.827
ESTCUBE 1 24 Jul 13:55:24 13:57:34 13° 300° (WNW) 13:59:44 437.505/2401.250
UKube-1 24 Jul 13:59:17 14:03:23 39° 99° (E) 14:07:26 .
SPROUT 24 Jul 14:04:21 14:08:07 30° 292° (WNW) 14:11:51 437.525
50 SAT 24 Jul 14:17:04 14:20:23 44° 288° (WNW) 14:23:40 437.505
SO-50 24 Jul 14:42:46 14:47:04 40° 48° (NE) 14:51:23 436.795
VELOX 1 24 Jul 14:43:59 14:46:52 17° 297° (WNW) 14:49:44 145.980
RS-15 24 Jul 14:46:07 14:56:03 31° 103° (ESE) 15:06:05 29.354- 29.394
BEESAT 3 24 Jul 14:46:19 14:48:58 17° 321° (NW) 14:51:38 437.485
O/OREOS (USA 219) 24 Jul 14:47:16 14:50:44 22° 102° (ESE) 14:54:13 437.305
MOZHAYETS 4 24 Jul 14:47:57 14:48:07 10° 88° (E) 14:48:17
DX 1 24 Jul 14:51:01 14:55:06 39° 290° (WNW) 14:59:09 434.975-435.025
Oscar 19 24 Jul 14:56:08 14:58:47 14° 271° (W) 15:01:26 437.125/150
ITAMSAT 1 24 Jul 15:03:27 15:08:37 62° 71° (ENE) 15:13:47 435.822/435.867
NO-84 24 Jul 15:09:19 15:11:17 14° 3° (N) 15:13:18 435.350 FM
AO-85 24 Jul 15:09:34 15:10:57 11° 326° (NW) 15:12:21 145.980
BEESAT 24 Jul 15:14:12 15:18:14 27° 95° (E) 15:22:14 436.000
Gurwin Techsat 1B 24 Jul 15:15:30 15:18:36 16° 270° (W) 15:21:43 435.225
BEESAT 2 24 Jul 15:24:00 15:26:52 18° 319° (NW) 15:29:46 435.950
ITUPSAT 1 24 Jul 15:26:41 15:31:02 35° 97° (E) 15:35:22 437.325
AO-7 24 Jul 15:32:53 15:41:14 74° 254° (WSW) 15:49:39 .
UKube-1 24 Jul 15:35:54 15:39:08 21° 295° (WNW) 15:42:22 .
PCSat 24 Jul 15:36:21 15:40:52 27° 251° (WSW) 15:45:22 145.827
DOVE 4 24 Jul 16:00:30 16:03:19 15° 59° (ENE) 16:06:12 437.250
MOZHAYETS 4 24 Jul 16:21:17 16:25:52 84° 286° (WNW) 16:30:26
SO-50 24 Jul 16:23:33 16:27:21 26° 246° (WSW) 16:31:09 436.795
O/OREOS (USA 219) 24 Jul 16:25:43 16:29:54 38° 300° (WNW) 16:34:06 437.305
ITAMSAT 1 24 Jul 16:44:59 16:48:29 18° 269° (W) 16:51:59 435.822/435.867
NO-84 24 Jul 16:46:38 16:49:46 25° 24° (NNE) 16:53:06 435.350 FM
CUTE-I 24 Jul 16:47:40 16:51:12 18° 59° (ENE) 16:54:43 437.470
XW-2F 24 Jul 16:50:41 16:52:01 12° 63° (ENE) 16:53:22 145.980 - 146.000
BEESAT 24 Jul 16:51:45 16:56:03 35° 292° (WNW) 17:00:20 436.000
CUBESAT XI-V 24 Jul 16:53:55 16:58:23 43° 98° (E) 17:02:51 437.345
RS-15 24 Jul 16:54:59 17:07:16 82° 305° (NW) 17:19:43 29.354- 29.394
YUBILEINY 24 Jul 17:03:57 17:07:22 13° 72° (ENE) 17:10:46 435.215
ITUPSAT 1 24 Jul 17:04:44 17:08:44 27° 294° (WNW) 17:12:43 437.325
KKS-1 24 Jul 17:07:47 17:11:47 31° 96° (E) 17:15:46 437.445
XW-2D 24 Jul 17:16:55 17:20:00 25° 69° (ENE) 17:23:05 145.860 - 145.880
XW-2B 24 Jul 17:26:41 17:30:00 30° 70° (ENE) 17:33:19 145.730 - 145.750
HO-68 24 Jul 17:27:49 17:32:52 21° 54° (NE) 17:37:54 435.675
AO-7 24 Jul 17:31:09 17:35:22 15° 273° (W) 17:39:37 .
DOVE 4 24 Jul 17:35:24 17:40:15 78° 258° (WSW) 17:45:27 437.250
STARS 24 Jul 17:39:35 17:43:25 29° 96° (E) 17:47:13 437.465
XW-2C 24 Jul 17:43:37 17:47:15 49° 73° (ENE) 17:50:54 145.795 - 145.815
CUTE 1.7 + AOD 2 24 Jul 17:51:54 17:53:34 12° 61° (ENE) 17:55:13 437.475
NUDT-PHONESAT 24 Jul 17:54:06 17:57:39 48° 74° (ENE) 18:01:13 437.300
MOZHAYETS 4 24 Jul 18:01:46 18:02:15 10° 302° (WNW) 18:02:44
LilacSat-2 24 Jul 18:06:05 18:09:52 81° 260° (W) 18:13:38 437.200
SEEDS 24 Jul 18:06:06 18:07:06 11° 60° (ENE) 18:08:04 437.485
KAITUO 1B 24 Jul 18:07:23 18:11:04 75° 76° (ENE) 18:14:45 145.475/437.950
XW-2F 24 Jul 18:22:00 18:25:40 56° 260° (W) 18:29:21 145.980 - 146.000
NO-84 24 Jul 18:23:42 18:27:35 76° 220° (SW) 18:31:43 435.350 FM
CUTE-I 24 Jul 18:25:18 18:30:39 71° 257° (WSW) 18:36:03 437.470
CUBESAT XI-V 24 Jul 18:31:55 18:35:28 22° 295° (WNW) 18:39:01 437.345
KKS-1 24 Jul 18:44:28 18:48:14 27° 294° (WNW) 18:51:58 437.445
AAUSAT CUBESAT 2 24 Jul 18:50:03 18:52:23 15° 63° (ENE) 18:54:43 437.432
XW-2D 24 Jul 18:51:03 18:54:08 24° 265° (W) 18:57:12 145.860 - 145.880
YUBILEINY 24 Jul 18:53:38 19:02:21 68° 93° (E) 19:11:05 435.215
CUBEBUG 2 24 Jul 18:58:03 19:02:17 34° 69° (ENE) 19:06:26 437.445
XW-2B 24 Jul 19:01:30 19:04:14 19° 267° (W) 19:06:59 145.730 - 145.750
RS-15 24 Jul 19:10:55 19:21:55 35° 334° (NNW) 19:32:54 29.354- 29.394
HO-68 24 Jul 19:12:31 19:19:43 87° 255° (WSW) 19:26:57 435.675
STARS 24 Jul 19:15:54 19:19:42 29° 293° (WNW) 19:23:28 437.465
AO-73 24 Jul 19:18:25 19:21:14 17° 64° (ENE) 19:24:01 145.935
XW-2C 24 Jul 19:20:15 19:21:43 12° 270° (W) 19:23:13 145.795 - 145.815
XW-2A 24 Jul 19:21:26 19:24:47 67° 76° (ENE) 19:28:09 145.665 - 145.685
CUTE 1.7 + AOD 2 24 Jul 19:24:39 19:28:49 70° 259° (WSW) 19:33:02 437.475
STRAND 1 24 Jul 19:27:49 19:32:06 27° 94° (E) 19:36:23 437.568
NUDT-PHONESAT 24 Jul 19:30:27 19:31:50 12° 270° (W) 19:33:12 437.300
SEEDS 24 Jul 19:37:59 19:42:08 79° 259° (W) 19:46:19 437.485
BEESAT 3 24 Jul 19:47:05 19:48:05 11° 33° (NNE) 19:49:03 437.485
UWE-3 24 Jul 19:56:55 20:01:30 81° 76° (ENE) 20:06:00 435.000/436.395/437.385
Tancredo 1 24 Jul 20:01:26 20:03:52 24° 138° (SE) 20:06:19 437.200
NO-84 24 Jul 20:03:15 20:04:35 11° 236° (SW) 20:05:56 435.350 FM
ZACube-1 24 Jul 20:12:05 20:16:30 65° 75° (ENE) 20:20:50 437.345
nSIGHT-1 24 Jul 20:14:33 20:16:16 14° 132° (SE) 20:18:00 .
AO-85 24 Jul 20:15:35 20:18:34 19° 41° (NE) 20:21:40 145.980
AAUSAT CUBESAT 2 24 Jul 20:23:24 20:27:24 52° 260° (W) 20:31:26 437.432
BEESAT 2 24 Jul 20:26:12 20:26:31 10° 32° (NNE) 20:26:49 435.950
EO-88 24 Jul 20:34:00 20:34:51 11° 63° (ENE) 20:35:42 145.990 - 145.960
CUBEBUG 2 24 Jul 20:34:57 20:38:54 27° 265° (W) 20:42:49 437.445
Oscar 11 24 Jul 20:39:17 20:43:35 87° 76° (ENE) 20:47:55 .
YUBILEINY 24 Jul 20:52:26 20:59:51 29° 294° (WNW) 21:07:19 435.215
AO-73 24 Jul 20:52:46 20:57:06 51° 261° (W) 21:01:21 145.935
HO-68 24 Jul 21:04:13 21:08:24 16° 272° (W) 21:12:36 435.675
ISS 24 Jul 21:06:37 21:09:40 40° 141° (SE) 21:12:45 437.550
STRAND 1 24 Jul 21:06:38 21:11:23 40° 292° (WNW) 21:16:06 437.568
FO-29 24 Jul 21:10:45 21:16:05 22° 87° (E) 21:20:59 435.910
BEESAT 3 24 Jul 21:22:31 21:26:30 60° 53° (NE) 21:30:25 437.485
RS-15 24 Jul 21:29:11 21:39:20 28° 8° (N) 21:49:13 29.354- 29.394
DELFI C3 24 Jul 21:30:13 21:34:08 81° 76° (ENE) 21:38:07 145.870
Tancredo 1 24 Jul 21:36:19 21:39:08 42° 335° (NNW) 21:41:59 437.200
UWE-3 24 Jul 21:37:32 21:38:27 11° 272° (W) 21:39:22 435.000/436.395/437.385
nSIGHT-1 24 Jul 21:49:03 21:52:16 80° 327° (NNW) 21:55:30 .
ZACube-1 24 Jul 21:51:16 21:53:10 12° 270° (W) 21:55:04 437.345
TIGRISAT 24 Jul 21:53:45 21:56:48 19° 92° (E) 21:59:49 435.000
AO-85 24 Jul 21:55:07 21:59:17 62° 239° (WSW) 22:03:44 145.980
BEESAT 2 24 Jul 22:01:11 22:05:12 53° 52° (NE) 22:09:08 435.950
EO-88 24 Jul 22:04:26 22:08:02 59° 259° (W) 22:11:38 145.990 - 145.960
LO-87 24 Jul 22:11:02 22:13:46 20° 68° (ENE) 22:16:30 145.935 - 145.965
M-CUBED/EXP-1 PRIME 24 Jul 22:16:36 22:18:38 13° 95° (E) 22:20:40 437.505
ISS 24 Jul 22:43:10 22:46:11 35° 339° (NNW) 22:49:13 437.550
UNISAT 6 24 Jul 22:44:59 22:49:21 73° 103° (ESE) 22:53:35 437.425
PRISM 24 Jul 22:49:55 22:54:06 68° 102° (ESE) 22:58:14 437.425
FO-29 24 Jul 22:54:39 23:01:52 69° 289° (WNW) 23:08:13 435.910
BEESAT 3 24 Jul 23:01:37 23:03:34 13° 251° (WSW) 23:05:29 437.485
Tancredo 1 24 Jul 23:12:55 23:15:05 18° 355° (N) 23:17:14 437.200
ESTCUBE 1 24 Jul 23:17:16 23:21:44 77° 74° (ENE) 23:26:13 437.505/2401.250
SPROUT 24 Jul 23:23:15 23:26:40 23° 66° (ENE) 23:30:06 437.525
nSIGHT-1 24 Jul 23:26:21 23:29:02 23° 348° (NNW) 23:31:44 .
QB50P2 24 Jul 23:27:48 23:29:44 13° 90° (E) 23:31:41 145.880/145.840
TIGRISAT 24 Jul 23:29:37 23:33:41 40° 289° (WNW) 23:37:41 435.000
EO-79 24 Jul 23:39:25 23:42:02 16° 91° (E) 23:44:37 145.935-145.965
NANOSAT C BR1 24 Jul 23:39:56 23:42:15 14° 91° (E) 23:44:33 145.865
BEESAT 2 24 Jul 23:40:04 23:42:31 16° 249° (WSW) 23:44:57 435.950
RS-15 24 Jul 23:43:48 23:55:40 51° 41° (NE) 00:06:55 29.354- 29.394
LO-87 24 Jul 23:43:53 23:47:02 27° 264° (W) 23:50:13 145.935 - 145.965
M-CUBED/EXP-1 PRIME 24 Jul 23:48:51 23:53:27 77° 291° (WNW) 23:58:07 437.505
VELOX 1 25 Jul 00:04:34 00:08:54 55° 72° (ENE) 00:13:16 145.980
DX 1 25 Jul 00:12:14 00:15:37 22° 65° (ENE) 00:19:01 434.975-435.025
AIST 2D 25 Jul 00:19:26 00:22:54 68° 285° (WNW) 00:26:23 435.315
ISS 25 Jul 00:20:48 00:23:18 20° 359° (N) 00:25:49 437.550
UNISAT 6 25 Jul 00:23:42 00:25:26 12° 300° (WNW) 00:27:09 437.425
PRISM 25 Jul 00:27:01 00:28:49 13° 299° (WNW) 00:30:37 437.425
FO-29 25 Jul 00:41:41 00:45:26 15° 310° (NW) 00:49:00 435.910
DUCHIFAT 1 25 Jul 00:46:38 00:50:50 70° 102° (ESE) 00:54:58 145.980
POLYITAN 1 25 Jul 00:48:38 00:52:53 89° 272° (W) 00:57:04 437.675
Tancredo 1 25 Jul 00:48:45 00:51:11 23° 15° (NNE) 00:53:38 437.200
50 SAT 25 Jul 00:49:07 00:52:30 73° 75° (ENE) 00:55:56 437.505
O/OREOS (USA 219) 25 Jul 00:54:42 00:59:08 55° 63° (ENE) 01:03:32 437.305
UKube-1 25 Jul 00:54:44 00:58:45 40° 70° (ENE) 01:02:49 .
ESTCUBE 1 25 Jul 00:58:00 00:59:04 11° 272° (W) 01:00:09 437.505/2401.250
SPROUT 25 Jul 00:58:29 01:02:23 34° 263° (W) 01:06:20 437.525
QB50P2 25 Jul 01:01:45 01:05:54 58° 287° (WNW) 01:10:01 145.880/145.840
nSIGHT-1 25 Jul 01:03:36 01:06:11 21° 8° (N) 01:08:45 .
EO-79 25 Jul 01:13:59 01:18:03 46° 288° (WNW) 01:22:03 145.935-145.965
NANOSAT C BR1 25 Jul 01:14:11 01:18:16 51° 288° (WNW) 01:22:19 145.865
BUGSAT 1 25 Jul 01:16:48 01:20:42 41° 98° (E) 01:24:33 437.445
Oscar 19 25 Jul 01:24:34 01:28:38 23° 93° (E) 01:32:43 437.125/150
M-CUBED/EXP-1 PRIME 25 Jul 01:25:46 01:27:07 11° 307° (NW) 01:28:29 437.505
VELOX 1 25 Jul 01:43:09 01:45:41 15° 269° (W) 01:48:15 145.980
DX 1 25 Jul 01:47:32 01:51:34 37° 262° (W) 01:55:40 434.975-435.025
Gurwin Techsat 1B 25 Jul 01:48:15 01:52:36 25° 94° (E) 01:56:55 435.225
MOZHAYETS 4 25 Jul 01:50:01 01:52:07 13° 60° (ENE) 01:54:12
RS-15 25 Jul 01:56:48 02:08:29 59° 247° (WSW) 02:19:33 29.354- 29.394
ISS 25 Jul 01:57:30 02:00:28 31° 19° (NNE) 02:03:25 437.550
BEESAT 25 Jul 02:21:37 02:25:59 37° 68° (ENE) 02:30:21 436.000
Tancredo 1 25 Jul 02:23:55 02:26:52 83° 214° (SW) 02:29:50 437.200
DUCHIFAT 1 25 Jul 02:24:15 02:25:55 12° 299° (WNW) 02:27:34 145.980
UKube-1 25 Jul 02:31:46 02:34:55 20° 267° (W) 02:38:06 .
ITUPSAT 1 25 Jul 02:34:25 02:39:00 48° 71° (ENE) 02:43:36 437.325
O/OREOS (USA 219) 25 Jul 02:35:24 02:38:04 16° 260° (W) 02:40:42 437.305
nSIGHT-1 25 Jul 02:39:52 02:43:04 57° 28° (NNE) 02:46:15 .
BUGSAT 1 25 Jul 02:52:58 02:55:45 18° 296° (WNW) 02:58:30 437.445
Oscar 19 25 Jul 03:03:15 03:08:10 46° 291° (WNW) 03:13:06 437.125/150
ITAMSAT 1 25 Jul 03:15:53 03:19:33 19° 92° (E) 03:23:11 435.822/435.867
MOZHAYETS 4 25 Jul 03:24:04 03:28:39 76° 256° (WSW) 03:33:15
Gurwin Techsat 1B 25 Jul 03:27:40 03:32:43 45° 291° (WNW) 03:37:45 435.225
AO-7 25 Jul 03:33:21 03:40:51 35° 97° (E) 03:48:16 .
ISS 25 Jul 03:33:53 03:37:03 51° 218° (SW) 03:40:14 437.550
CUBESAT XI-V 25 Jul 03:58:16 04:02:41 48° 72° (ENE) 04:07:07 437.345
BEESAT 25 Jul 03:59:51 04:03:49 26° 265° (W) 04:07:48 436.000
KKS-1 25 Jul 04:06:51 04:10:54 35° 69° (ENE) 04:14:59 437.445
ITUPSAT 1 25 Jul 04:13:36 04:17:04 20° 267° (W) 04:20:34 437.325
RS-15 25 Jul 04:14:35 04:17:58 12° 269° (W) 04:21:17 29.354- 29.394
nSIGHT-1 25 Jul 04:16:47 04:19:14 20° 225° (SW) 04:21:40 .
PCSat 25 Jul 04:35:50 04:40:34 31° 110° (ESE) 04:45:19 145.827
STARS 25 Jul 04:37:12 04:41:06 31° 68° (ENE) 04:45:01 437.465
ITAMSAT 1 25 Jul 04:54:16 04:59:23 57° 289° (WNW) 05:04:27 435.822/435.867
YUBILEINY 25 Jul 05:02:28 05:10:23 36° 69° (ENE) 05:18:10 435.215
AO-7 25 Jul 05:25:48 05:33:55 57° 296° (WNW) 05:42:00 .
DOVE 4 25 Jul 05:33:15 05:37:52 30° 94° (E) 05:42:19 437.250
CUBESAT XI-V 25 Jul 05:37:12 05:40:19 18° 269° (W) 05:43:27 437.345
KKS-1 25 Jul 05:43:52 05:47:30 24° 265° (W) 05:51:10 437.445
XW-2F 25 Jul 05:54:08 05:55:51 13° 91° (E) 05:57:36 145.980 - 146.000
